• In Germany
  • List of Countries
  • For 7 days
  • Water Temperature
  • Satellite Maps
  • Weather Map
  • Weather Widgets
  • user-avatar
    Login

    Hourly Weather Orsha

    Today, 26 July, Wednesday

    Time Temperature Precipitation Wind Pressure Humidity
    00:00 +19°C° 1.1 mm 4 mps 736 mmHg 92%
    01:00 +19°C° 1.1 mm 4 mps 736 mmHg 92%
    02:00 +19°C° 1.1 mm 3 mps 736 mmHg 93%
    03:00 +19°C° 0.2 mm 4 mps 736 mmHg 92%
    04:00 +18°C° 0.2 mm 4 mps 736 mmHg 92%
    05:00 +18°C° 0.2 mm 4 mps 735 mmHg 92%
    06:00 +19°C° 0.1 mm 5 mps 735 mmHg 89%
    07:00 +20°C° 0.1 mm 5 mps 735 mmHg 87%
    08:00 +22°C° 0 mm 5 mps 735 mmHg 84%
    09:00 +23°C° 0.1 mm 5 mps 735 mmHg 78%
    10:00 +26°C° 0.1 mm 6 mps 735 mmHg 73%
    11:00 +27°C° 0.1 mm 6 mps 735 mmHg 67%
    12:00 +28°C° 0 mm 6 mps 734 mmHg 64%
    13:00 +29°C° 0 mm 6 mps 734 mmHg 62%
    14:00 +29°C° 0 mm 6 mps 734 mmHg 60%
    15:00 +28°C° 0.4 mm 6 mps 734 mmHg 66%
    16:00 +27°C° 0.4 mm 5 mps 734 mmHg 72%
    17:00 +26°C° 0.4 mm 5 mps 735 mmHg 78%
    18:00 +25°C° 0.2 mm 5 mps 735 mmHg 82%
    19:00 +22°C° 0.2 mm 4 mps 735 mmHg 86%
    20:00 +20°C° 0.2 mm 4 mps 735 mmHg 91%
    21:00 +19°C° 0 mm 3 mps 736 mmHg 92%
    22:00 +18°C° 0 mm 3 mps 736 mmHg 93%
    23:00 +17°C° 0 mm 3 mps 736 mmHg 95%

    Tomorrow, 27 July, Thursday

    Time Temperature Precipitation Wind Pressure Humidity
    00:00 +17°C° 0 mm 3 mps 737 mmHg 95%
    01:00 +16°C° 0 mm 3 mps 737 mmHg 95%
    02:00 +16°C° 0 mm 2 mps 737 mmHg 96%
    03:00 +16°C° 0 mm 2 mps 737 mmHg 96%
    04:00 +15°C° 0 mm 2 mps 738 mmHg 95%
    05:00 +15°C° 0 mm 2 mps 738 mmHg 95%
    06:00 +17°C° 0 mm 3 mps 738 mmHg 90%
    07:00 +18°C° 0 mm 3 mps 739 mmHg 85%
    08:00 +20°C° 0 mm 3 mps 739 mmHg 81%
    09:00 +21°C° 0 mm 3 mps 739 mmHg 74%
    10:00 +22°C° 0 mm 3 mps 739 mmHg 68%
    11:00 +25°C° 0 mm 3 mps 739 mmHg 62%
    12:00 +25°C° 0 mm 3 mps 739 mmHg 60%
    13:00 +26°C° 0 mm 3 mps 739 mmHg 58%
    14:00 +26°C° 0 mm 3 mps 739 mmHg 56%
    15:00 +26°C° 0 mm 2 mps 739 mmHg 57%
    16:00 +26°C° 0 mm 2 mps 739 mmHg 59%
    17:00 +26°C° 0 mm 1 mps 739 mmHg 60%
    18:00 +25°C° 0 mm 1 mps 739 mmHg 64%
    19:00 +23°C° 0 mm 1 mps 739 mmHg 69%
    20:00 +21°C° 0 mm 1 mps 739 mmHg 73%
    21:00 +21°C° 0 mm 1 mps 739 mmHg 75%
    22:00 +20°C° 0 mm 1 mps 739 mmHg 77%
    23:00 +19°C° 0 mm 1 mps 739 mmHg 79%

    Day after tomorrow, 28 July, Friday

    Time Temperature Precipitation Wind Pressure Humidity
    00:00 +18°C° 0 mm 2 mps 739 mmHg 80%
    01:00 +18°C° 0 mm 2 mps 739 mmHg 81%
    02:00 +17°C° 0 mm 2 mps 739 mmHg 83%
    03:00 +17°C° 0 mm 2 mps 739 mmHg 84%
    04:00 +17°C° 0 mm 2 mps 739 mmHg 86%
    05:00 +17°C° 0 mm 2 mps 739 mmHg 88%
    06:00 +18°C° 0.2 mm 2 mps 739 mmHg 87%
    07:00 +19°C° 0.2 mm 2 mps 739 mmHg 86%
    08:00 +20°C° 0.2 mm 3 mps 739 mmHg 84%
    09:00 +21°C° 0.8 mm 3 mps 739 mmHg 82%
    10:00 +24°C° 0.8 mm 3 mps 739 mmHg 79%
    11:00 +25°C° 0.8 mm 3 mps 738 mmHg 76%
    12:00 +25°C° 1 mm 3 mps 738 mmHg 76%
    13:00 +25°C° 1 mm 3 mps 738 mmHg 76%
    14:00 +25°C° 1 mm 3 mps 738 mmHg 76%
    15:00 +25°C° 0.4 mm 3 mps 738 mmHg 76%
    16:00 +25°C° 0.4 mm 3 mps 738 mmHg 77%
    17:00 +25°C° 0.4 mm 3 mps 738 mmHg 78%
    18:00 +22°C° 0.2 mm 3 mps 738 mmHg 82%
    19:00 +21°C° 0.2 mm 2 mps 738 mmHg 87%
    20:00 +19°C° 0.2 mm 2 mps 738 mmHg 91%
    21:00 +19°C° 0 mm 2 mps 738 mmHg 93%
    22:00 +18°C° 0 mm 2 mps 738 mmHg 94%
    23:00 +17°C° 0 mm 2 mps 738 mmHg 95%

    29 July, Saturday

    Time Temperature Precipitation Wind Pressure Humidity
    00:00 +17°C° 0.2 mm 2 mps 739 mmHg 95%
    01:00 +17°C° 0.2 mm 2 mps 739 mmHg 96%
    02:00 +16°C° 0.2 mm 2 mps 739 mmHg 97%
    03:00 +16°C° 0 mm 2 mps 739 mmHg 97%
    04:00 +16°C° 0 mm 3 mps 740 mmHg 97%
    05:00 +16°C° 0 mm 3 mps 740 mmHg 97%
    06:00 +16°C° 0 mm 3 mps 740 mmHg 94%
    07:00 +17°C° 0 mm 4 mps 740 mmHg 92%
    08:00 +17°C° 0 mm 4 mps 741 mmHg 89%
    09:00 +19°C° 0 mm 4 mps 741 mmHg 83%
    10:00 +20°C° 0 mm 4 mps 741 mmHg 76%
    11:00 +21°C° 0 mm 5 mps 742 mmHg 70%
    12:00 +21°C° 0 mm 5 mps 742 mmHg 66%
    13:00 +22°C° 0 mm 5 mps 742 mmHg 62%
    14:00 +23°C° 0 mm 5 mps 742 mmHg 58%
    15:00 +22°C° 0 mm 5 mps 742 mmHg 60%
    16:00 +22°C° 0 mm 4 mps 742 mmHg 62%
    17:00 +22°C° 0 mm 4 mps 742 mmHg 64%
    18:00 +21°C° 0 mm 4 mps 743 mmHg 70%
    19:00 +19°C° 0 mm 3 mps 743 mmHg 75%
    20:00 +18°C° 0 mm 3 mps 743 mmHg 81%
    21:00 +17°C° 0 mm 3 mps 743 mmHg 84%
    22:00 +16°C° 0 mm 3 mps 744 mmHg 87%
    23:00 +14°C° 0 mm 3 mps 744 mmHg 90%

    30 July, Sunday

    Time Temperature Precipitation Wind Pressure Humidity
    00:00 +14°C° 0 mm 3 mps 744 mmHg 92%
    01:00 +14°C° 0 mm 3 mps 744 mmHg 94%
    02:00 +13°C° 0 mm 3 mps 745 mmHg 96%
    03:00 +13°C° 0 mm 3 mps 745 mmHg 96%
    04:00 +13°C° 0 mm 3 mps 745 mmHg 96%
    05:00 +12°C° 0 mm 3 mps 745 mmHg 97%
    06:00 +14°C° 0 mm 3 mps 746 mmHg 90%
    07:00 +17°C° 0 mm 3 mps 746 mmHg 84%
    08:00 +18°C° 0 mm 3 mps 746 mmHg 78%
    09:00 +20°C° 0 mm 3 mps 746 mmHg 73%
    10:00 +21°C° 0 mm 4 mps 747 mmHg 69%
    11:00 +22°C° 0 mm 4 mps 747 mmHg 64%
    12:00 +23°C° 0 mm 4 mps 747 mmHg 62%
    13:00 +23°C° 0 mm 4 mps 747 mmHg 61%
    14:00 +25°C° 0 mm 4 mps 747 mmHg 59%
    15:00 +25°C° 0 mm 4 mps 747 mmHg 62%
    16:00 +25°C° 0 mm 4 mps 746 mmHg 65%
    17:00 +25°C° 0 mm 3 mps 746 mmHg 68%
    18:00 +22°C° 0 mm 3 mps 746 mmHg 74%
    19:00 +21°C° 0 mm 3 mps 746 mmHg 80%
    20:00 +20°C° 0 mm 2 mps 746 mmHg 86%
    21:00 +19°C° 0 mm 2 mps 746 mmHg 87%
    22:00 +19°C° 0 mm 2 mps 747 mmHg 89%
    23:00 +18°C° 0 mm 2 mps 747 mmHg 90%

    31 July, Monday

    Time Temperature Precipitation Wind Pressure Humidity
    00:00 +18°C° 0 mm 2 mps 747 mmHg 90%
    01:00 +18°C° 0 mm 2 mps 747 mmHg 90%
    02:00 +17°C° 0 mm 3 mps 747 mmHg 91%
    03:00 +17°C° 0 mm 2 mps 747 mmHg 90%
    04:00 +17°C° 0 mm 2 mps 747 mmHg 90%
    05:00 +17°C° 0 mm 2 mps 747 mmHg 90%
    06:00 +19°C° 0.1 mm 3 mps 747 mmHg 87%
    07:00 +20°C° 0.1 mm 4 mps 747 mmHg 84%
    08:00 +22°C° 0.1 mm 4 mps 747 mmHg 82%
    09:00 +22°C° 0.6 mm 4 mps 747 mmHg 82%
    10:00 +22°C° 0.6 mm 4 mps 746 mmHg 82%
    11:00 +22°C° 0.6 mm 5 mps 746 mmHg 82%
    12:00 +25°C° 0.1 mm 5 mps 746 mmHg 78%
    13:00 +26°C° 0.1 mm 5 mps 746 mmHg 74%
    14:00 +28°C° 0.1 mm 5 mps 746 mmHg 70%
    15:00 +28°C° 0.2 mm 5 mps 746 mmHg 71%
    16:00 +28°C° 0.2 mm 4 mps 745 mmHg 73%
    17:00 +28°C° 0.2 mm 4 mps 745 mmHg 75%
    18:00 +27°C° 0.2 mm 3 mps 746 mmHg 80%
    19:00 +25°C° 0.2 mm 3 mps 746 mmHg 85%
    20:00 +22°C° 0.2 mm 3 mps 746 mmHg 90%
    21:00 +22°C° 0 mm 3 mps 747 mmHg 91%
    22:00 +21°C° 0 mm 3 mps 747 mmHg 92%
    23:00 +20°C° 0 mm 3 mps 748 mmHg 93%
    Show more